www.pogodaiklimat.ru

Погода и климат >> Архив погоды >> Россия >> Магаданская область >> Эвенск


ПОГОДА в Эвенске

  • Прогноз погоды в Эвенске
  • Монитор погоды в Эвенске

АРХИВ ПОГОДЫ в Эвенске

Время (UTC), дата Ветер
(напр.,м/с)
 
Видим.   Явления Облачность Т
(С)
Тd
(С)
f
(%)
Тe
(С)
Тes
(С)
Комфортность P
(гПа)
Po
(гПа)
Тmin
(С)
Tmax
(С)
R
(мм)
R24
(мм)
S
(см)
06 17.07 В 2 2000 м морось {ливн. осадки} 10/10 180 м
[St]
+10.1 +9.5 96 +8 +8 1007.3 1005.9
09 17.07 СЗ 1 2000 м ливневой дождь {морось} 10/10 240 м
[St]
+10.1 +9.7 97 +9 +9 1006.3 1004.9 +12.0 4
12 17.07 ЮВ 3 2000 м ливневой дождь {морось} 10/10 180 м
[Cb cap]
+10.6 +10.2 97 +8 +8 1005.7 1004.3
15 17.07 СВ 2 2000 м ливневой дождь 10/10 180 м
[Cb cap]
+10.5 +10.2 98 +9 +9 1005.5 1004.1
18 17.07 С 2 2000 м ливневой дождь 10/10 150 м
[Cb cap]
+11.0 +10.8 99 +10 +10 1005.8 1004.4
21 17.07 С 3 2000 м морось {ливн. осадки} 10/10 210 м
[St]
+10.7 +10.3 97 +9 +9 1006.6 1005.2 +9.7 8
00 18.07 В 3 4000 м дымка {ливн. осадки} 10/10 240 м
[St]
+11.8 +10.5 92 +10 +10 1007.5 1006.1
03 18.07 ЮВ 3 2000 м морось 10/10 240 м
[St]
+12.0 +10.7 92 +10 +10 1008.2 1006.8
06 18.07 В 3 1000 м морось 10/10 150 м
[St]
+11.2 +10.7 97 +9 +9 1008.5 1007.1
09 18.07 Ю 4 1000 м морось 10/10 240 м
[St]
+10.6 +10.2 97 +8 +8 1009.2 1007.8 +12.2 2
12 18.07 ЮВ 4 1000 м сильн. морось 10/10 240 м
[St]
+10.1 +9.7 97 +7 +7 1010.5 1009.1
15 18.07 Ю 3 1000 м ливневой дождь 10/10 270 м
[St]
+10.1 +9.7 97 +8 +8 1010.4 1009.0
18 18.07 Ю 5 2000 м ливневой дождь 10/10 240 м
[St]
+10.1 +9.7 97 +7 +7 1010.4 1009.0
21 18.07 Ю 3 2000 м морось {ливн. осадки} 10/10 210 м
[St]
+13.0 +11.9 93 +12 +12 1010.7 1009.3 +1.0 2
00 19.07 Ю 2 4000 м слаб. ливневой дождь {морось} 10/10 330 м
[Cb cap]
+11.0 +10.2 95 +10 +10 1011.3 1009.9
03 19.07 ЮВ 2 4000 м слаб. ливневой дождь {морось} 10/10 270 м
[Cb cap]
+10.5 +9.8 95 +9 +9 1011.6 1010.2
06 19.07 ЮВ 2 2000 м слаб. морось 10/10 180 м
[St]
+10.6 +10.1 97 +9 +9 1011.9 1010.4
09 19.07 Ю 2 4000 м дымка 10/10 270 м
[St]
+10.5 +9.8 95 +9 +9 1012.5 1011.1 +12.9 2
12 19.07 Ю 3 2000 м слаб. морось 10/10 240 м
[St]
+10.4 +9.9 97 +8 +8 1013.1 1011.7
15 19.07 Ю 2 2000 м слаб. ливневой дождь {морось} 10/10 180 м
[Cb cap]
+10.7 +10.3 97 +9 +9 1012.7 1011.3
18 19.07 Ю 2 2000 м слаб. ливневой дождь {морось} 10/10 180 м
[Cb cap]
+10.0 +9.7 98 +8 +8 1011.9 1010.5
21 19.07 В 2 2000 м слаб. морось 10/10 270 м
[Cb cap]
+10.3 +9.8 97 +9 +9 1011.6 1010.1 +9.9 2
00 20.07 ЮВ 3 2000 м ливневой дождь {морось} 10/10 270 м
[Cb cap]
+11.2 +10.8 97 +9 +9 1010.8 1009.4
03 20.07 ЮВ 4 1000 м сильн. морось 10/10 180 м
[St]
+11.4 +11.2 99 +9 +9 1010.2 1008.8
06 20.07 В 3 1000 м сильн. морось {ливн. осадки} 10/10 180 м
[St]
+10.9 +10.6 98 +9 +9 1009.6 1008.2
09 20.07 СВ 2 2000 м в посл. час морось {ливн. осадки} 10/10 240 м
[St]
+10.5 +10.3 99 +9 +9 1009.1 1007.7 +11.6 9
12 20.07 Ю 1 2000 м в посл. час морось {ливн. осадки} 10/10 270 м
[St]
+10.5 +10.2 98 +10 +10 1008.7 1007.3
15 20.07 штиль 0 2000 м в посл. час морось {ливн. осадки} 10/10 300 м
[St]
+10.0 +9.8 99 +9 +9 1008.1 1006.6
18 20.07 СЗ 1 2000 м ливневой дождь {морось} 10/10 180 м
[Cb cap]
+9.8 +9.6 99 +9 +9 1007.8 1006.4
21 20.07 штиль 0 4000 м слаб. морось 10/10 270 м
[St]
+10.8 +10.3 97 +10 +10 1007.7 1006.3 +9.7 8
00 21.07 СЗ 1 4000 м слаб. ливневой дождь {морось} 10/10 300 м
[Cb cap]
+11.6 +10.3 92 +11 +11 1007.0 1005.6
03 21.07 ЮЗ 4 4000 м слаб. ливневой дождь 10/9 300 м
[Cb cap Ac und]
+11.3 +9.9 91 +9 +9 1006.2 1004.7
06 21.07 ЮВ 2 50 км {ливн. осадки} 9/8 600 м
[Cb calv Ac trans]
+13.1 +10.3 83 +12 +13 1005.4 1004.0
09 21.07 З 4 50 км 8/6 600 м
[Cb calv Ac trans]
+14.1 +5.7 57 +13 +13 1005.3 1003.9 +14.9 2
12 21.07 З 1 50 км 8/5 1000 м
[Sc Ac trans]
+8.0 +3.4 73 +7 +7 1005.8 1004.3
15 21.07 СЗ 2 50 км 8/5 1000 м
[Sc Ac trans]
+7.2 +3.5 77 +5 +5 1005.4 1004.0
18 21.07 СЗ 2 50 км 3/1 1000 м
[Sc Ac trans]
+5.6 +3.3 85 +3 +4 1005.4 1003.9
21 21.07 Ю 2 50 км 3/1 1000 м
[Sc Ac trans]
+14.3 +7.9 65 +14 +18 1005.4 1004.0 +4.3
00 22.07 Ю 3 50 км 4/0
[Ac cast Cc]
+15.7 +8.9 64 +15 +23 1004.7 1003.3
03 22.07 Ю 4 50 км 6/3 1000 м
[Cb calv Ac cast]
+17.3 +9.9 62 +17 +21 1004.7 1003.3
06 22.07 Ю 3 50 км 9/8 1000 м
[Cb calv Ac cast]
+14.0 +10.6 80 +13 +13 1004.7 1003.3
09 22.07 СЗ 5 50 км 10/10 1000 м
[Cb calv]
+12.3 +6.5 68 +10 +10 1006.5 1005.1 +17.5
12 22.07 СЗ 5 4000 м слаб. ливневой дождь 10/10 600 м
[Cb cap]
+7.7 +6.3 91 +4 +4 1007.9 1006.5
15 22.07 СЗ 3 4000 м ливневой дождь 10/10 600 м
[Cb cap]
+6.6 +5.4 92 +3 +3 1008.4 1006.9
18 22.07 СЗ 3 4000 м слаб. ливневой дождь 10/10 600 м
[Cb cap]
+6.1 +5.0 93 +3 +3 1007.8 1006.3
21 22.07 СЗ 1 10 км слаб. ливневой дождь 10/10 1000 м
[Cb cap]
+8.0 +6.4 90 +7 +7 1008.0 1006.5 +6.0 14
00 23.07 СЗ 4 10 км слаб. ливневой дождь 10/10 1000 м
[Cb cap]
+9.6 +4.8 72 +7 +7 1007.9 1006.5
03 23.07 СЗ 3 10 км слаб. ливневой дождь 10/10 1000 м
[Cb cap]
+9.0 +5.2 77 +7 +7 1008.3 1006.9
06 23.07 З 2 10 км слаб. ливневой дождь 10/10 600 м
[Cb cap]
+8.4 +5.6 83 +7 +7 1008.8 1007.3
09 23.07 штиль 0 10 км слаб. ливневой дождь 10/10 600 м
[Cb cap]
+8.2 +6.3 88 +7 +7 1008.7 1007.3 +10.0 3
12 23.07 СЗ 1 10 км слаб. ливневой дождь 10/10 600 м
[Cb cap]
+7.0 +6.0 93 +6 +6 1008.9 1007.5
15 23.07 СЗ 1 50 км в посл. час ливневой дождь 10/10 600 м
[Cb calv]
+6.9 +4.3 83 +6 +6 1009.0 1007.5
18 23.07 СЗ 1 50 км {ливн. осадки} 9/9 600 м
[Cb calv]
+7.1 +4.7 85 +6 +6 1009.1 1007.6
21 23.07 СВ 2 50 км 9/9 600 м
[Cb calv]
+11.0 +5.8 70 +10 +10 1009.4 1008.0 +6.3 1
00 24.07 З 2 50 км 8/3 1000 м
[Cu hum Ac cast]
+15.9 +4.1 45 +16 +20 1009.0 1007.6
03 24.07 ЮЗ 5 50 км 3/3 1000 м
[Cb calv]
+15.4 +6.6 56 +14 +18 1008.3 1006.9

 

Местоположение метеостанции Эвенск (Магаданская область, Россия): широта 61.92 долгота 159.20 высота над уровнем моря 12 м.

В архиве по умолчанию представлена погода в Эвенске за последнюю неделю. Архивные данные за месяц целиком и за предыдущие месяцы, начиная с января 2011 года, Вы можете получить, выбрав интересующий диапазон дат из раскрывающегося списка и нажав кнопку "Ввод!".


*Определитесь, кто Вы:
робот инопланетянин человек

Внимание! Время в таблицах - всемирное. Для получения местного времени необходимо прибавить поправку, которая равна 11 ч.

Смотрите также архив погоды в соседних городах и на ближайших метеорологических станциях:

Погода в Лабазной (Магаданская область, Россия) (158 км)
Погода в Омсукчане (Магаданская область, Россия) (188 км)
Погода на Шелихова (Магаданская область, Россия) (225 км)
Погода в Чемурнауте (Камчатский край, Россия) (242 км)
Погода в Кегали (Магаданская область, Россия) (275 км)
Погода в Палане (Камчатский край, Россия) (318 км)
Погода в Балыгычане (Магаданская область, Россия) (340 км)
Погода в Верхне-Пенжино (Камчатский край, Россия) (359 км)
Погода в Среднекане (Магаданская область, Россия) (363 км)
Погода в Оссоре (Камчатский край, Россия) (364 км)

Пояснения к столбцам:

Ветер - указаны скорость ветра в м/с - средняя за 10 мин, порывы в срок и между сроками (в фигурных скобках) и направление, откуда дует ветер: С - северный, СВ - северо-восточный, В - восточный, ЮВ - юго-восточный, Ю - южный, ЮЗ - юго-западный, З - западный, СЗ - северо-западный.
Видимость - горизонтальная дальность видимости в метрах или километрах. При видимости от 1 до 10 км при отсутствии осадков обычно наблюдается дымка, при ухудшении видимости до 1 км и менее - туман. В сухую погоду видимость может ухудшаться дымом, пылью или мглою.
Явления - указаны атмосферные явления, наблюдавшиеся в срок или в последний час перед сроком; фигурными скобками обозначены явления, наблюдавшиеся между сроками (за 1-3 часа до срока); квадратными скобками обозначены град или гололедные отложения с указанием их диаметра в мм.
Облачность - указаны через наклонную черту общая и нижняя облачность в баллах и высота нижней границы облаков в метрах; квадратными скобками обозначены формы облаков: Ci - перистые, Cs - перисто-слоистые, Cc - перисто-кучевые, Ac - высококучевые, As - высокослоистые, Sc - слоисто-кучевые, Ns - слоисто-дождевые, Cu - кучевые, Cb - кучево-дождевые. Подробнее классификацию облаков см. в Атласе облаков (PDF).
T - Температура воздуха - температура, измеренная на высоте 2 м над землей.
Td - Температура точки росы - температура, при понижении до которой содержащийся в воздухе водяной пар достигнет насыщения.
f - Относительная влажность воздуха - влажноcть воздуха, измеренная на высоте 2 м над землей.
Te - Эффективная температура - температура, которую ощущает одетый по сезону человек в тени. Характеристика душности погоды. При расчете учитывается влияние влажности воздуха и скорости ветра на теплоощущения человека.
Tes - Эффективная температура на солнце - температура, которую ощущает человек, с поправкой на солнечный нагрев. Характеристика знойности погоды. Зависит от высоты солнца над горизонтом, облачности и скорости ветра. Ночью, в пасмурную погоду, а также при ветре 12 м/с и более поправка равна нулю.
P - Атмосферное давление - приведенное к уровню моря атмосферное давление.
Po - Атмосферное давление - измеренное на уровне метеостанции атмосферное давление.
Tmin - Минимальная температура - минимум температуры воздуха на высоте 2 м над землей.
Tmax - Максимальная температура - максимум температуры воздуха на высоте 2 м над землей.
R - Количество осадков - Количество выпавших осадков за период времени, мм. При наведении курсора мыши на число - период времени, за который выпало указанное количество осадков.
R24 - Количество осадков - Количество выпавших осадков за 24 часа, мм.
S - Снежный покров - Высота снежного покрова, см. При наведении курсора мыши на число - состояние снежного покрова и степень покрытия местности в баллах.